Content
SEND FEEDBACK

Daily
Averages
Monthly
Summary
United States of America

ST. LOUIS, MISSOURI


Home > North America > United States > Missouri
Elevation: 163 meters     Latitude: 38 45N     Longitude: 090 22W

WEATHER
 
SELECT A DAY
Number of Records: 201,437;   Date Range: 1/1/95 - 12/25/14
 
SHARE

PRINT THIS DATA

[ ← Previous Day ]
WEATHER ALMANAC - MARCH 4, 2013
[ Next Day → ]
[ °C ]   °F
Weather ElementAverageHighLow
Temperature43.2 °F53.1 °F (1:54 pm)36 °F (1:54 am)
Dewpoint29.9 °F36 °F (4:54 pm)24.1 °F (5:54 am)
Humidity60.5 %79 % (8:54 pm)43 % (12:54 pm)
Barometer29.86 in30.01 in (1:54 am)29.75 in (3:54 pm)
Wind Speed7.5 mph12.7 mph (12:54 pm)
Wind Gust23 mph (8:54 am)
Weather ElementAverage
Visibility10 mi
Wind DirectionESE (105.2 °)

Weather ElementTotal
Precipitation---
Heating Degree Days20.5 (Base 65)
Averaged from 23 records on March 4, 2013
WEATHER CONDITIONS BREAKOUT
WIND DIRECTION BREAKOUT
WEATHER BY HOUR - MARCH 4, 2013
[ °C ]   °F
Local TimeTemperatureDewpointHumidityBarometerVisibilityWind DirectionWind SpeedGust SpeedPrecipitationEventsConditions
1:54 AM36.0 °F27.0 °F70 %30.01 in10.0 miESE (110°)9.2 mph0.00 inOvercast
2:54 AM36.0 °F26.1 °F67 %29.99 in10.0 miEast (100°)8.1 mphOvercast
3:54 AM36.0 °F26.1 °F67 %29.97 in10.0 miESE (120°)6.9 mphPartly Cloudy
4:54 AM36.0 °F25.0 °F64 %29.96 in10.0 miESE (110°)8.1 mphClear
5:54 AM36.0 °F24.1 °F62 %29.94 in10.0 miESE (110°)10.4 mphMostly Cloudy
6:54 AM36.0 °F24.1 °F62 %29.92 in10.0 miEast (100°)10.4 mph17.3 mphClear
7:54 AM37.0 °F24.1 °F59 %29.92 in10.0 miESE (110°)11.5 mph18.4 mphMostly Cloudy
8:54 AM39.0 °F24.1 °F55 %29.90 in10.0 miSE (130°)11.5 mph23.0 mphMostly Cloudy
9:54 AM41.0 °F24.1 °F51 %29.88 in10.0 miSE (140°)10.4 mph19.6 mphClear
10:54 AM44.1 °F26.1 °F49 %29.85 in10.0 miESE (110°)9.2 mph18.4 mphClear
11:54 AM48.9 °F28.0 °F44 %29.83 in10.0 miSSE (160°)10.4 mph16.1 mphMostly Cloudy
12:54 PM51.1 °F28.9 °F43 %29.79 in10.0 miESE (120°)12.7 mphClear
1:54 PM53.1 °F30.9 °F43 %29.76 in10.0 miSSE (160°)8.1 mphOvercast
2:54 PM53.1 °F33.1 °F47 %29.76 in10.0 miSE (130°)9.2 mphMostly Cloudy
3:54 PM53.1 °F33.1 °F47 %29.75 in10.0 miESE (120°)6.9 mph17.3 mphMostly Cloudy
4:54 PM52.0 °F36.0 °F54 %29.77 in10.0 miSE (130°)6.9 mphOvercast
5:54 PM50.0 °F36.0 °F59 %29.79 in10.0 miESE (120°)4.6 mphClear
6:54 PM48.0 °F36.0 °F63 %29.81 in10.0 miESE (110°)4.6 mphMostly Cloudy
7:54 PM42.1 °F35.1 °F76 %29.81 in10.0 miEast (80°)3.5 mphMostly Cloudy
8:54 PM41.0 °F35.1 °F79 %29.82 in10.0 miCalmPartly Cloudy
9:54 PM43.0 °F36.0 °F76 %29.82 in10.0 miENE (70°)5.8 mphClear
10:54 PM42.1 °F35.1 °F76 %29.83 in10.0 miEast (80°)3.5 mphScattered Clouds
11:54 PM39.9 °F34.0 °F79 %29.81 in10.0 miCalmClear
Hourly data recorded from KSUS, located miles away from St. Louis, Missouri







STORIES FROM OUR PARTNERS